Weather in Verkhnyaya Troitsa

Russia / Tver Oblast     57°15′05″N   37°08′35″E
temp.,
°C
wind,
m/s
gust,
m/s
humid.,
%
clouds,
%
prec.,
mm/h
press.,
hPa
HPBL,
m
11 april, sun
sun1100:00+4ssw514765 0.0 1022393
03:00+3ssw3118096 0.0 1023286
06:00+1sw2790100 0.0 1025134
09:00+6wsw247913 0.0 1027391
12:00+9sw247185 0.0 1028804
15:00+11wnw246799 0.0 1029622
18:00+7nne2387100 0.0 103058
21:00+6e2490100 0.0 103283
12 april, mon
mon1200:00+6ese239175 0.0 103247
03:00+5s22885 0.0 103424
06:00+5sse22865 0.0 103436
09:00+10sse37683 0.0 1034304
12:00+14se475267 0.0 10331022
15:00+14ese5855100 0.0 10321122
18:00+11ese51168100 0.0 1030788
21:00+9se51275100 0.0 1029522
13 april, tue
tue1300:00+7se3886100 0.0 1028301
03:00+6se3893100 0.0 1027200
06:00+5se2697100 0.0 1026136
09:00+10sse3682100 0.0 1025272
12:00+14s3767100 0.0 1024525
15:00+18s4653100 0.0 10231105
18:00+15sse3765100 0.0 1023197
21:00+11sse3476100 0.0 102361
14 april, wed
wed1400:00+9s3977100 0.0 1023149
03:00+8s257882 0.0 102282
06:00+8s22770 0.0 102230
09:00+13s376194 0.0 1021300
12:00+17s4551100 0.0 1020642
15:00+18s4644100 0.0 10191193
18:00+16s255212 0.0 1019136
21:00+12sse3564100 0.0 101974
15 april, thu
thu1500:00+10wsw1171100 0.0 101910
03:00+7nne3689100 0.0 1019139
06:00+5nne3792100 0.0 1019230
09:00+7nne4583100 0.0 1019357
12:00+10nne4471100 0.0 1020601
15:00+10nne5568100 0.0 1020791
18:00+7nne6979100 0.0 1022627
21:00+4nne61493100 0.1 1024571